Location: Le Petit-Vavre
(46.5081°N, 1.5239°E)
Time: 17:08:26
(UTC+00:00)

Cosmos 1933 Rocket - Pass Details

Date: 03 March 2021
Orbit: 607 x 630 km, 82.5° (Epoch: 15 April)

Event Time Altitude Azimuth Distance (km) Brightness Sun altitude
Rises 18:55:54 0° 181° (S) 2,858 6.9 -13.3°
Reaches altitude 10° 18:58:07 10° 178° (S) 1,961 6.1 -13.7°
Maximum altitude 19:02:25 68° 96° (E) 664 3.4 -14.5°
Drops below altitude 10° 19:06:48 10° 14° (NNE) 1,991 6.1 -15.2°
Sets 19:09:03 0° 12° (NNE) 2,905 7.0 -15.6°
